Flag for Germany Weather past 2 weeks in Ibbenbüren, North Rhine-Westphalia, Germany

Now
39 °F

Partly cloudy.


Feels Like: 31 °F
Forecast: 35 / 47 °F
Wind: 15 mph from West

Location: Muenster / Osnabrueck

Current Time: Mar 4, 2015 at 8:06:01 PM

Latest Report: Mar 4, 2015 at 7:20 PM


Visibility: N/A

Pressure: 30.27 "Hg

Humidity: 93%

Dew point: 37 °F

Location of IbbenbürenLocation

Historic Weather in Ibbenbüren — Graph

°F

Ibbenbüren temperature yesterday

Maximum temperature yesterday: 43 °F (at 11:20 AM)
Minimum temperature yesterday: 36 °F (at 4:50 AM)
Average temperature yesterday: 39 °F

Past Weeks' High & Low Weather Summary

 TemperatureHumidityPressure
High50 °F (Mar 1, 12:20 PM)100% (Feb 17, 6:20 PM)30.74 "Hg (Feb 17, 6:20 PM)
Low27 °F (Feb 22, 3:50 AM)46% (Feb 28, 2:20 PM)29.30 "Hg (Feb 21, 6:20 AM)
Average39 °F85%29.89 "Hg
* Reported Feb 17 6:20 PM — Mar 4 6:50 PM, Ibbenbüren, Weather by CustomWeather, © 2015

Note: Actual official high and low records may vary slightly from our data, if they occured in-between our weather recording intervals... More about our weather records

Advertising

Ibbenbüren weather history for previous 24 hours

 ConditionsComfort  
Time TempWeatherWind HumidityBarometerVisibility
6:50 PM
Wed, Mar 4
39 °FSprinkles. Partly cloudy.15 mph87%30.27 "HgN/A
6:20 PM39 °FPartly cloudy.17 mph87%30.24 "HgN/A
5:50 PM39 °FScattered clouds.17 mph87%30.24 "HgN/A
5:20 PM39 °FSprinkles. Scattered clouds.24 mph87%30.24 "HgN/A
4:50 PM43 °FScattered clouds.21 mph76%30.21 "HgN/A
4:20 PM43 °FScattered clouds.17 mph76%30.21 "HgN/A
3:50 PM43 °FScattered clouds.13 mph81%30.21 "HgN/A
3:20 PM39 °FBroken clouds.12 mph87%30.18 "HgN/A
2:50 PM43 °FScattered showers. Broken clouds.16 mph71%30.18 "HgN/A
2:20 PM43 °FBroken clouds.20 mph71%30.18 "HgN/A
1:50 PM43 °FBroken clouds.21 mph71%30.18 "HgN/A
1:20 PM43 °FBroken clouds.20 mph76%30.18 "HgN/A
12:50 PM43 °FBroken clouds.13 mph76%30.18 "HgN/A
12:20 PM41 °FBroken clouds.14 mph81%30.18 "HgN/A
11:50 AM41 °FBroken clouds.15 mph81%30.18 "HgN/A
11:20 AM41 °FBroken clouds.15 mph81%30.18 "HgN/A
10:50 AM39 °FBroken clouds.16 mph87%30.15 "HgN/A
10:20 AM39 °FBroken clouds.14 mph87%30.15 "HgN/A
9:50 AM39 °FPartly sunny.13 mph87%30.15 "HgN/A
9:20 AM37 °FPartly sunny.13 mph87%30.12 "HgN/A
8:50 AM37 °FPartly sunny.12 mph87%30.12 "HgN/A
8:20 AM37 °FBroken clouds.13 mph87%30.12 "HgN/A
7:50 AM36 °FBroken clouds.12 mph93%30.12 "HgN/A
7:20 AM36 °FPartly sunny.13 mph93%30.12 "HgN/A
6:50 AM36 °FPassing clouds.14 mph93%30.09 "HgN/A
6:20 AM36 °FClear.12 mph87%30.09 "Hg10 mi
5:50 AM36 °FClear.10 mph87%30.09 "Hg10 mi
5:20 AM36 °FClear.8 mph87%30.07 "Hg10 mi
4:50 AM36 °FClear.9 mph87%30.07 "Hg10 mi
4:20 AM36 °FClear.7 mph93%30.07 "Hg10 mi
3:50 AM36 °FClear.7 mph93%30.07 "Hg10 mi
3:20 AM34 °FClear.6 mph100%30.07 "Hg10 mi
2:50 AM34 °FClear.6 mph93%30.07 "Hg10 mi
2:20 AM36 °FPassing clouds.7 mph93%30.07 "HgN/A
1:50 AM34 °FSnow flurries. Passing clouds.7 mph93%30.07 "Hg5 mi
1:20 AM36 °FPassing clouds.10 mph87%30.04 "HgN/A
12:50 AM34 °FPassing clouds.6 mph93%30.04 "HgN/A
12:20 AM34 °FThunderstorms. Partly cloudy.17 mph93%30.04 "HgN/A
11:50 PM
Tue, Mar 3
37 °FThundershowers. Passing clouds.5 mph87%30.01 "HgN/A
11:20 PM36 °FClear.6 mph93%30.01 "Hg10 mi
10:20 PM37 °FPassing clouds.6 mph87%30.01 "HgN/A
9:50 PM36 °FClear.5 mph93%30.01 "Hg10 mi
9:20 PM36 °FPassing clouds.6 mph93%29.98 "HgN/A
8:50 PM36 °FClear.6 mph93%29.98 "Hg10 mi
8:20 PM37 °FClear.8 mph87%29.98 "Hg10 mi
Weather by CustomWeather, © 2015

See weather overviewHow to use our weather pages